Overview Statistics Trail Chart Weather Telemetry Raw packets
 

This is the latest recevied weather packets stored in our database for station/object EA5GK-10. If no packets are shown the sender has not sent any weather packets the latest 10 day(s).

<< 6 7 8 9 10 11 12 >>
Time Temp. Humidity Pressure Rain* Wind** Luminosity Snow
1788440090 34.44° C 41% 1022.8 hPa - - - -
1788439190 34.44° C 42% 1022.9 hPa - - - -
1788438290 33.89° C 42% 1023.1 hPa - - - -
1788437390 33.89° C 43% 1023 hPa - - - -
1788436491 33.33° C 43% 1023.1 hPa - - - -
1788435589 33.33° C 43% 1023.3 hPa - - - -
1788434689 32.78° C 44% 1023.4 hPa - - - -
1788433789 32.22° C 44% 1023.6 hPa - - - -
1788432889 32.22° C 45% 1023.7 hPa - - - -
1788431989 31.67° C 45% 1023.8 hPa - - - -
1788431089 31.11° C 47% 1023.9 hPa - - - -
1788430188 31.11° C 48% 1024 hPa - - - -
1788429288 30.56° C 49% 1024.1 hPa - - - -
1788428388 30.56° C 49% 1024.1 hPa - - - -
1788427488 30° C 49% 1024.1 hPa - - - -
1788426588 30° C 50% 1024.2 hPa - - - -
1788425688 30° C 50% 1024 hPa - - - -
1788424788 29.44° C 50% 1024 hPa - - - -
1788423888 28.89° C 50% 1024 hPa - - - -
1788422987 28.89° C 51% 1024 hPa - - - -
1788422105 28.33° C 52% 1023.9 hPa - - - -
1788421205 27.78° C 53% 1023.9 hPa - - - -
1788420305 26.67° C 54% 1024.1 hPa - - - -
1788419404 25.56° C 59% 1024.1 hPa - - - -
1788418504 25° C 60% 1023.9 hPa - - - -

* Rain since midnight (hover to see other rain measurements)
** Current wind speed in m/s (hover to see current wind gust speed)